EHI
0 0 0 0 0 0 0 0 0 0 0 0 0 0 0 0 0 0 0 0 0 0 0 0 0 0 0 0 0 0 0 0 0 0 0 0 0 0 0 0 0 0 0 0
0 0 0 0 0 0 0 0 0 0 0 0 0 0 0 0 0 0 0 0 0 0 0 0 0 0 0 0 0 0 0 0 0 0 0 0 0 0 0 0 0 0 0 0
0 0 0 0 0 0 0 0 0 0 0 0 0 0 0 0 0 0 0 0 0 0 0 0 0 0 0 0 0 0 0 0 0 0 0 0 0 0 0 0 0 0 0 0
0 0 0 0 0 0 0 0 0 0 0 0 0 0 0 0 0 0 0 0 0 0 0 0 0 0 0 0 0 0 0 0 0 0 0 0 0 0 0 0 0 0 0 0
0 0 0 0 0 0 0 0 0 0 0 0 0 0 0 0 0 0 0 0 0 0 0 0 0 0 0 0 0 0 0 0 0 0 0 0 0 0 0 0 0 0 0 0
0 0 0 0 0 0 0 0 0 0 0 0 0 0 0 0 0 0 0 0 0 0 0 0 0 0 0 0 0 0 0 0 0 0 0 0 0 0 0 0 0 0 0 0
0 0 0 0 0 0 0 0 0 0 0 0 0 0 0 0 0 0 0 0 0 0 0 0 0 0 0 0 0 0 0 0 0 0 0 0 0 0 0 0 0 0 0 0
0 0 0 0 0 0 0 0 0 0 0 0 0 0 0 0 0 0 0 0 0 0 0 0 0 1 1 1 0 0 0 0 0 0 0 0 1 1 1 0 0 0 0 0
0 0 0 0 0 0 0 0 0 0 0 0 0 0 0 0 0 0 0 0 0 0 0 0 0 1 1 1 0 0 0 0 0 0 0 1 2 2 1 0 0 0 0 0
0 0 0 0 0 0 0 0 0 0 0 0 0 0 0 0 0 0 0 0 0 0 0 0 0 0 0 0 0 0 0 0 0 0 0 1 2 2 1 0 0 0 0 0
0 0 0 0 0 0 0 0 0 0 0 0 0 0 0 0 0 0 0 0 0 0 0 0 0 0 0 0 0 0 0 0 0 0 0 0 1 1 0 0 0 0 0 0
0 0 0 0 0 0 0 0 0 0 0 0 0 0 0 0 0 0 0 0 0 0 0 0 0 0 0 0 0 0 0 0 0 0 0 0 0 0 0 0 0 0 0 0
0 0 0 0 0 0 0 0 0 0 0 0 0 0 0 0 0 0 0 0 0 0 0 0 0 0 0 0 0 0 0 0 0 1 1 1 0 0 0 0 0 0 0 0
0 0 0 0 0 0 0 0 0 0 0 0 0 0 0 0 0 0 0 0 0 0 0 0 0 0 0 0 0 0 0 0 0 1 2 1 0 0 0 0 0 0 0 0
0 0 0 0 0 0 0 0 0 0 0 0 0 0 0 0 0 0 0 0 0 0 1 0 0 0 0 0 0 0 0 0 0 1 1 0 0 0 0 0 0 0 0 0
0 0 0 0 0 0 0 0 0 0 0 0 0 0 0 0 0 0 0 0 0 0 0 0 0 0 0 0 0 0 0 1 0 0 0 0 0 0 0 0 0 0 0 0
0 0 0 0 0 0 0 0 0 0 0 0 0 0 0 0 0 0 0 0 0 0 0 0 1 0 0 0 0 0 0 0 0 0 0 0 0 0 0 0 0 0 0 0
0 0 0 0 0 0 0 0 0 0 0 0 0 0 0 0 0 0 0 0 0 0 0 0 0 0 0 0 0 0 0 0 0 0 0 0 0 0 0 0 0 0 0 0
0 0 0 0 0 0 0 0 0 0 0 0 0 0 0 0 0 0 0 0 0 0 0 0 0 0 0 0 0 0 0 0 0 0 0 1 0 0 0 0 0 0 0 0
0 0 0 0 0 0 0 0 0 0 0 0 0 0 0 0 0 0 0 0 0 0 0 0 0 0 0 0 0 0 0 0 0 0 0 0 0 0 0 0 0 0 0 0
0 0 0 0 0 0 0 0 0 0 0 0 0 0 0 0 0 0 0 0 0 0 0 0 0 0 0 0 0 0 0 0 0 0 0 0 0 0 0 0 0 0 0 0
0 0 0 0 0 0 0 0 0 0 0 0 0 0 0 0 0 0 0 0 0 0 0 0 0 0 0 0 0 0 0 0 0 0 0 0 0 0 0 0 0 0 0 0
0 0 0 0 0 0 0 0 0 0 0 0 0 0 0 0 0 0 0 0 0 0 0 0 0 0 0 0 0 0 0 0 0 0 0 0 0 0 0 0 0 0 0 0
0 0 0 0 0 0 0 0 0 0 0 0 0 0 0 0 0 0 0 0 0 0 0 0 0 0 0 0 0 0 0 0 0 0 0 0 0 0 0 0 0 0 0 0
0 0 0 0 0 0 0 0 0 0 0 0 0 0 0 0 0 0 0 0 0 0 0 0 0 0 0 0 0 0 0 0 0 0 0 0 0 0 0 0 0 0 0 0
0 0 0 0 0 0 0 0 0 0 0 0 0 0 0 0 0 0 0 0 0 0 0 0 0 0 0 0 0 0 0 0 0 0 0 0 0 0 0 0 0 0 0 0
Wind_Speed
2 3 2 2 2 1 1 1 1 2 1 2 1 1 0 2 4 4 5 5 5 5 5 5 6 6 6 6 6 6 5 4 3 1 1 1 2 1 1 2 2 2 2 2
5 3 1 1 2 3 3 2 1 1 1 2 2 2 0 2 4 4 4 5 5 5 6 6 7 7 7 7 6 6 5 4 2 1 1 1 1 1 1 1 1 1 2 2
4 2 2 4 4 4 3 2 1 1 1 2 3 1 2 2 3 4 5 5 5 6 7 8 9 8 8 7 7 5 5 4 3 2 2 2 2 2 2 2 1 1 2 2
3 2 3 4 4 4 2 1 2 3 3 0 3 1 1 1 2 3 5 6 6 7 7 8 9 9 9 8 7 7 6 5 3 3 3 3 2 1 1 1 1 2 2 2
3 3 4 4 2 3 0 1 2 3 3 2 2 3 2 2 1 2 3 5 6 7 8 9 9 9 8 8 7 6 6 5 4 3 3 3 2 1 1 1 2 2 2 2
3 2 3 2 1 2 3 4 4 4 4 3 1 3 1 1 1 1 1 3 5 7 8 9 9 8 8 7 7 6 6 5 4 4 4 4 3 2 2 2 2 2 2 2
5 5 3 3 4 5 5 4 3 4 3 1 1 3 1 3 2 2 1 3 5 6 8 9 10 9 9 8 8 7 7 6 6 5 5 4 4 3 3 2 3 2 2 2
5 5 6 5 5 4 5 5 3 2 1 1 2 2 2 2 1 1 1 2 4 6 8 9 9 9 9 9 8 8 7 6 6 6 5 4 4 3 2 2 2 2 2 2
4 3 4 3 3 5 5 4 3 4 2 3 2 1 1 2 1 2 2 3 4 6 7 8 9 9 9 9 9 8 7 6 6 6 6 5 4 4 3 3 3 2 2 2
2 3 4 3 4 2 3 2 4 5 3 3 2 3 1 1 1 2 3 3 4 5 7 8 8 8 8 8 8 8 7 6 6 6 5 4 4 4 4 3 3 3 3 3
4 4 4 6 6 5 6 6 5 4 4 4 2 1 2 0 1 1 1 2 3 5 6 7 7 7 7 7 7 7 7 6 6 6 5 5 5 4 4 4 3 4 4 4
3 4 4 5 1 2 5 5 6 5 4 4 4 0 3 1 0 1 1 2 3 4 5 6 7 7 7 7 7 7 7 7 6 6 6 5 5 5 5 4 4 5 5 4
4 5 4 5 6 5 5 4 5 6 5 5 6 2 3 1 0 1 1 1 3 5 5 6 6 6 7 7 7 7 7 7 7 6 6 5 5 6 5 5 4 4 5 5
4 6 6 5 2 3 5 6 6 7 7 7 7 6 3 2 2 1 1 2 3 5 6 6 6 6 6 7 7 7 7 7 6 6 6 5 5 5 5 5 4 5 5 5
5 7 7 6 3 5 7 8 9 10 10 9 8 8 6 4 4 3 2 2 3 5 6 6 6 6 7 7 7 7 7 7 7 7 6 6 5 5 5 5 5 5 4 5
5 6 6 7 6 6 8 10 11 11 10 11 10 10 6 4 3 3 3 3 3 4 4 5 6 6 7 7 7 7 7 7 7 7 6 5 5 5 5 5 5 5 4 4
6 7 7 7 4 6 9 9 10 10 9 9 10 7 3 3 4 4 3 3 3 3 3 4 5 6 6 6 7 7 7 7 7 7 6 6 6 5 5 5 4 4 5 4
7 8 6 6 6 10 2 0 5 8 8 8 7 4 4 4 4 3 2 3 3 3 3 4 4 5 5 6 6 6 7 7 7 7 6 6 6 6 5 5 5 5 4 4
9 8 6 7 9 8 5 4 5 7 7 6 6 5 4 3 3 4 2 2 2 2 3 3 3 4 5 5 6 7 7 7 7 6 6 6 6 6 6 6 5 5 4 4
7 9 8 8 9 8 4 1 3 7 8 3 5 5 4 4 5 3 2 2 2 1 2 2 3 4 5 5 6 7 7 7 6 6 6 6 6 6 6 6 5 4 4 4
8 9 11 11 10 8 2 1 4 8 2 1 3 4 5 6 4 1 1 2 2 2 2 2 3 3 4 5 6 6 6 6 6 5 5 5 5 6 5 5 5 5 4 4
8 8 10 9 10 8 3 4 5 3 3 2 3 4 4 4 1 0 1 2 2 2 2 3 3 3 3 5 6 6 5 4 4 5 5 5 5 5 4 5 4 5 4 4
8 6 5 7 5 2 2 4 3 4 4 3 4 4 3 3 2 2 2 2 2 2 2 3 3 3 4 4 4 5 4 4 5 5 5 5 5 5 5 5 5 4 4 4
6 5 7 7 7 5 5 5 6 6 6 5 5 4 4 3 3 2 2 2 2 2 2 3 3 4 4 3 3 2 3 4 5 5 5 5 5 5 5 4 4 4 4 4
6 6 8 11 9 7 7 6 5 5 6 6 5 4 4 4 3 3 2 2 2 2 2 3 3 3 3 3 3 2 3 4 4 4 4 4 4 4 4 4 3 4 4 3
8 9 10 9 7 8 7 6 6 7 7 6 5 4 4 4 4 3 3 2 2 2 3 3 3 3 3 3 3 3 3 4 4 4 4 3 4 4 4 4 3 1 2 1
Wind_Direction
184 204 192 180 215 265 238 216 93 52 57 265 285 312 136 176 196 200 193 190 186 183 169 160 162 166 165 166 167 158 157 152 144 139 155 129 113 108 86 71 66 63 68 82
181 197 201 155 172 207 214 212 165 101 76 284 310 310 296 191 212 219 212 199 192 183 171 163 168 168 170 167 169 164 166 166 159 148 142 140 115 112 82 85 98 80 82 84
196 112 177 185 182 198 214 248 283 300 250 218 279 226 139 146 192 208 215 213 205 197 187 176 178 175 174 173 174 175 180 172 167 162 157 157 137 153 140 130 104 77 75 76
207 164 184 197 199 232 224 226 247 245 257 182 299 316 90 136 184 196 204 205 206 200 197 184 181 183 181 179 183 186 184 183 176 181 195 193 189 153 124 121 119 123 101 87
187 191 206 217 220 235 319 154 220 239 253 246 241 281 93 130 213 174 191 198 203 198 195 189 187 187 183 178 184 191 184 185 183 191 192 211 201 161 127 124 131 130 104 95
216 203 240 231 187 191 165 183 188 214 235 242 282 277 43 83 346 38 173 189 189 188 187 186 183 180 178 176 182 186 185 185 188 197 199 205 192 183 169 166 148 146 129 125
194 188 186 201 182 173 210 229 219 206 207 174 96 261 351 33 346 299 252 191 182 180 181 181 179 180 180 181 184 186 189 189 191 199 203 202 201 203 196 189 164 165 153 145
209 186 180 200 220 203 209 244 271 280 273 121 182 253 52 28 333 262 217 177 177 177 181 181 179 181 182 184 186 189 189 191 192 200 204 203 197 204 203 198 189 184 168 153
222 183 151 189 227 227 205 221 283 286 273 262 210 204 160 128 112 122 144 153 164 175 179 179 178 182 183 184 187 190 188 191 193 198 201 200 198 198 199 198 189 182 177 159
254 218 167 162 188 188 266 198 215 243 258 252 234 240 250 162 103 113 129 141 151 168 176 176 178 183 184 185 186 188 192 196 195 196 195 194 199 197 202 202 189 183 178 168
236 233 185 189 211 196 187 200 227 239 265 281 275 119 48 313 156 138 130 134 152 166 173 175 176 179 181 182 184 186 189 195 193 193 191 191 193 195 196 198 196 191 182 177
213 253 223 207 188 268 238 234 233 247 232 249 275 306 90 71 147 162 140 133 144 157 166 171 173 174 177 183 187 188 189 189 189 192 190 191 187 193 198 193 193 189 185 185
188 233 221 191 183 185 215 220 238 258 255 243 249 217 111 100 220 196 182 151 150 154 160 166 170 178 179 182 186 188 189 189 183 184 189 189 190 196 197 197 191 189 186 182
230 237 247 253 292 210 224 225 228 237 246 246 245 259 242 277 274 265 232 184 165 165 165 165 170 177 181 184 186 186 185 185 182 180 187 191 192 191 193 192 191 191 190 188
238 242 243 262 269 245 245 242 234 240 252 258 260 261 270 268 266 254 231 188 178 179 177 176 178 176 178 182 186 186 185 184 182 183 187 189 185 178 182 178 188 185 185 195
235 244 238 241 237 243 251 250 244 245 252 254 260 263 274 278 252 240 218 194 190 180 185 184 184 180 181 182 184 181 182 183 182 183 184 179 177 172 177 180 182 178 185 195
215 235 242 245 234 249 248 241 236 234 236 244 250 261 256 245 245 236 215 200 197 188 179 181 186 185 186 184 182 179 181 179 183 184 178 175 175 173 178 177 172 175 186 192
229 226 237 247 237 240 248 99 244 245 245 248 252 259 252 256 252 226 224 209 201 189 183 184 182 182 185 182 179 177 174 177 182 182 178 177 179 176 175 176 178 186 190 187
229 224 228 235 242 255 257 234 226 238 247 242 240 243 248 267 228 204 209 230 211 203 196 189 189 184 181 174 173 173 174 177 179 182 183 180 182 178 178 181 186 188 190 189
206 220 228 230 240 246 241 181 248 249 242 227 242 234 213 218 235 225 210 210 188 167 176 169 172 175 174 169 169 174 174 177 184 187 188 181 180 179 184 188 188 183 184 192
189 204 221 231 241 251 277 170 208 227 250 35 245 230 212 227 272 339 174 186 173 149 145 155 160 162 167 167 171 178 179 185 186 183 184 180 180 186 186 185 185 182 182 188
215 213 217 224 234 239 149 175 219 284 356 329 273 251 239 250 291 222 164 159 152 147 147 157 158 156 159 167 175 181 185 185 177 177 182 185 186 184 182 180 182 185 183 190
229 237 235 232 249 336 198 236 281 306 297 302 291 281 251 239 229 217 189 169 163 163 155 159 161 157 154 163 181 184 172 172 176 180 184 188 189 186 185 182 181 185 189 201
225 242 238 241 246 257 263 270 274 278 286 295 295 283 250 232 225 218 203 188 180 179 166 171 170 160 153 155 166 166 158 171 183 184 182 184 188 187 188 186 193 195 197 204
236 224 238 247 254 260 255 256 267 280 284 288 290 278 258 239 223 214 211 203 188 178 174 182 181 174 165 161 164 157 156 179 186 185 182 187 188 185 188 187 202 210 208 214
228 235 239 249 252 259 264 267 271 274 275 276 275 269 253 236 224 215 208 206 204 187 180 184 184 188 182 173 172 166 169 188 192 188 185 186 187 186 189 186 184 183 240 191